Regional Weather Roundup
Issued by NWS

Home | Current Version | Previous Version | Text Only | Print | Product List | Glossary On
Versions: 1 2 3 4 5 6 7 8 9 10 11 12 13 14 15 16 17 18 19 20 21 22 23 24 25 26 27 28 29 30 31 32 33 34 35 36 37 38 39 40 41 42 43 44 45 46 47 48 49 50
766
ASUS43 KDTX 071910
RWRMI
MICHIGAN HOURLY REGIONAL WEATHER ROUNDUP
NATIONAL WEATHER SERVICE DETROIT/PONTIAC MI
200 PM EST SUN FEB 07 2016

NOTE: "FAIR" INDICATES FEW OR NO CLOUDS BELOW 12,000 FEET WITH NO
SIGNIFICANT WEATHER AND/OR OBSTRUCTION TO VISIBILITY.

MIZ047>049-052>055-059>063-066>070-074>076-081>083-072000-
SOUTHEAST LOWER MICHIGAN

CITY           SKY/WX    TMP DP  RH WIND       PRES   REMARKS
ADRIAN         PTSUNNY   45  32  60 SW18G26   29.81F
ALMA           MOSUNNY   43  34  68 S14       29.72F
ANN ARBOR      MOSUNNY   46  31  55 S12       29.80F
BAD AXE        CLOUDY    41  32  70 S13       29.76F
CARO           CLOUDY    46  30  52 S18       29.74F
DETROIT CITY   SUNNY     47  30  51 SW14      29.83F
DETROIT        PTSUNNY   49  30  48 S22G28    29.83F
FLINT          CLOUDY    48  29  47 S14G23    29.76F
GROSSE ILE     SUNNY     43  34  70 S10       29.82F
HILLSDALE      CLOUDY    45  29  54 S12G25    29.77F
HOWELL         CLOUDY    46  29  53 S13G20    29.75F

CITY           SKY/WX    TMP DP  RH WIND       PRES   REMARKS
JACKSON        CLOUDY    46  28  49 SW17G23   29.76F
LAMBERTVILLE   SUNNY     49  32  51 SW15G22   29.82F
LANSING        CLOUDY    46  28  49 S14G25    29.73F
LAPEER         PTSUNNY   46  30  53 SW13      29.77F
MASON          CLOUDY    45  30  55 S8        29.74F
MONROE         SUNNY     49  31  50 S14G21    29.82F
MT. CLEMENS    PTSUNNY   43  32  64 S17       29.80F
PONTIAC        PTSUNNY   46  28  49 S15       29.77F
PORT HOPE        N/A     41  31  67 S10       29.75F
PORT HURON     PTSUNNY   45  32  61 S14G20    29.83F
TRI CITIES     CLOUDY    44  31  60 S13       29.73F
MIDLAND        PTSUNNY   44  29  57 S14       29.71F
TROY           SUNNY     48  29  48 S12G21    29.82F
SAGINAW HB     CLOUDY    45  32  61 S15       29.72F
$$
MIZ043>046-050>051-056>058-064>065-071>073-077>080-072000-
SOUTHWEST LOWER MICHIGAN

CITY           SKY/WX    TMP DP  RH WIND       PRES   REMARKS
BATTLE CREEK   CLOUDY    46  29  51 SW22G28   29.74F
BENTON HARBOR  CLOUDY    44  30  57 SW17      29.74F
BIG RAPIDS     CLOUDY    42  29  61 SW12G20   29.65F
COLDWATER      MOSUNNY   45  30  56 SW15G22   29.76F
FREMONT        PTSUNNY   40  31  70 SW20G25   29.68F WCI  30
HOLLAND        MOSUNNY   43  30  60 SW23G29   29.71F
GRAND RAPIDS   PTSUNNY   44  29  55 SW17      29.72F
IONIA          FAIR      44  30  57 S10       29.71F
KALAMAZOO      CLOUDY    46  29  51 S18       29.74F
LUDINGTON      CLOUDY    39  32  77 S14G23    29.66F WCI  30
MARSHALL       MOSUNNY   46  29  52 S15G25    29.74F
MOUNT PLEASANT MOSUNNY   45  30  55 SW7       29.69F
MUSKEGON       CLOUDY    41  32  70 S18G26    29.71F
SOUTH HAVEN    CLOUDY    43  31  62 SW12G20   29.74F
$$
MIZ016>042-072000-
NORTHERN LOWER MICHIGAN

CITY           SKY/WX    TMP DP  RH WIND       PRES   REMARKS
ALPENA         CLOUDY    37  29  72 SE14      29.69F WCI  28
BEAVER ISLAND  CLOUDY    37  33  84 S3        29.60F
BELLAIRE       CLOUDY    41  31  68 S7G16     29.62F
CADILLAC       PTSUNNY   40  31  68 S15G21    29.61F WCI  32
CHARLEVOIX     CLOUDY    39  31  73 S5        29.64F
FRANKFORT      SUNNY     40  32  71 SW14G23   29.63S WCI  33
GAYLORD        CLOUDY    38  29  70 S15G23    29.61F WCI  29
GRAYLING       CLOUDY    38  29  70 SE13      29.64F WCI  30
HARBOR SPRINGS CLOUDY    38  31  76 SE6       29.62F WCI  34
HOUGHTON LAKE  CLOUDY    38  29  70 S10       29.65F WCI  31
MANISTEE       CLOUDY    41  28  60 SW13G21   29.64F
OSCODA         CLOUDY    39  30  70 S10       29.72F WCI  32
PELLSTON       CLOUDY    36  32  85 SE9       29.63F WCI  29
ROGERS CITY    LGT SNOW  35  30  83 SE8       29.69F WCI  28
TRAVERSE CITY  CLOUDY    44  30  57 S10G20    29.60F
$$
MIZ007>008-015-072000-
EASTERN UPPER MICHIGAN

CITY           SKY/WX    TMP DP  RH WIND       PRES   REMARKS
KINROSS        CLOUDY    34  34 100 SE16      29.63F WCI  23
MACKINAC ISLAN CLOUDY    33  33 100 SE8       29.63F FOG     WCI  26
NEWBERRY       CLOUDY    34  33  96 S13       29.57F FOG     WCI  25
S. S. MARIE    SNOW      30  28  92 SE10      29.65F VSB 1/4 WCI  21
MUNISING         N/A     35  31  85 S9        29.53F WCI  28
$$
MIZ004>006-011>014-085-072000-
CENTRAL UPPER MICHIGAN

CITY           SKY/WX    TMP DP  RH WIND       PRES   REMARKS
MANISTIQUE     CLOUDY    36  32  87 S8        29.56F WCI  30
ESCANABA       CLOUDY    36  32  87 S7        29.55F WCI  30
MENOMINEE      CLOUDY    39  28  65 SW9       29.55F WCI  33
SAWYER-GWINN   CLOUDY    32  30  93 S9        29.50F FOG     WCI  24
$$
MIZ001>003-009>011-084-072000-
WESTERN UPPER MICHIGAN

CITY           SKY/WX    TMP DP  RH WIND       PRES   REMARKS
IRON MOUNTAIN  CLOUDY    36  29  75 S8        29.50F HAZE    WCI  30
HOUGHTON       LGT SNOW  32  30  92 S5        29.47F VSB 3/4 WCI  27
COPPER HARBOR    N/A     33  31  92 SW6       29.50F WCI  28
IRONWOOD       CLOUDY    34  30  86 SW9       29.44S WCI  26
$$

ABBREVIATIONS USED IN REMARKS
   TC - TEMPERATURE IN CELSIUS
  WCI - WIND CHILL INDEX
   HX - HEAT INDEX
  VSB - VISIBILITY





USA.gov is the U.S. government's official web portal to all federal, state and local government web resources and services.